User: anonymous   Login
Location: Oshawa
(43.9000°N, 78.8670°W)
Time: 00:45:04
(UTC-04:00)
Language:

Cosmos 2333 Rocket - Orbit

View from above orbital plane
View from above orbital plane
View from above satellite
View from above satellite

Ground track
Ground track

The orbit data is extracted from the following two-line orbital elements,

1 24298U 96051B   17207.88045692 -.00000082 +00000-0 -18317-4 0  9991
2 24298 070.8516 338.4563 0014501 133.1162 227.1174 14.12497087077162
Epoch (UTC): 26 July 2017 21:07:51
Eccentricity: 0.0014501
inclination: 70.8516°
perigee height: 840 km
apogee height: 861 km
right ascension of ascending node: 338.4563°
argument of perigee: 133.1162°
revolutions per day: 14.12497087
mean anomaly at epoch: 227.1174°
orbit number at epoch: 7716

The dashed part of the orbit path shows where the satellite is in the earth's shadow,  

DLR